Satellite: CO-66
Catalog number: 32791
Epoch time:      11090.65304170
Element set:     939
Inclination:      097.8557 deg
RA of node:       155.8588 deg
Eccentricity:    0.0017131
Arg of perigee:   068.7849 deg
Mean anomaly:     291.5182 deg
Mean motion:   14.81958911 rev/day
Decay rate:       8.43e-06 rev/day^2
Epoch rev:           15802
Checksum:              344

Satellite: RS-30
Catalog number: 32953
Epoch time:      11090.39516629
Element set:     599
Inclination:      082.5024 deg
RA of node:       211.0736 deg
Eccentricity:    0.0018920
Arg of perigee:   193.0841 deg
Mean anomaly:     166.9749 deg
Mean motion:   12.43011288 rev/day
Decay rate:        1.0e-07 rev/day^2
Epoch rev:           12942
Checksum:              289

Satellite: TACSAT-3
Catalog number: 35001
Epoch time:      11090.76264302
Element set:     549
Inclination:      040.4483 deg
RA of node:       282.0948 deg
Eccentricity:    0.0024719
Arg of perigee:   351.9286 deg
Mean anomaly:     008.1207 deg
Mean motion:   15.46129347 rev/day
Decay rate:     2.0312e-04 rev/day^2
Epoch rev:           10508
Checksum:              274

Satellite: PHARMSAT
Catalog number: 35002
Epoch time:      11090.78326069
Element set:     510
Inclination:      040.4696 deg
RA of node:       279.4622 deg
Eccentricity:    0.0025808
Arg of perigee:   356.6703 deg
Mean anomaly:     003.4072 deg
Mean motion:   15.46154006 rev/day
Decay rate:     1.5846e-04 rev/day^2
Epoch rev:           10511
Checksum:              269

Satellite: HAWKSAT1
Catalog number: 35003
Epoch time:      11090.74768261
Element set:     564
Inclination:      040.4562 deg
RA of node:       260.4218 deg
Eccentricity:    0.0022288
Arg of perigee:   019.6327 deg
Mean anomaly:     340.5519 deg
Mean motion:   15.55613817 rev/day
Decay rate:     5.6970e-04 rev/day^2
Epoch rev:           10532
Checksum:              287

Satellite: CP6
Catalog number: 35004
Epoch time:      11089.86012998
Element set:     567
Inclination:      040.4584 deg
RA of node:       260.5917 deg
Eccentricity:    0.0022137
Arg of perigee:   021.1843 deg
Mean anomaly:     338.9863 deg
Mean motion:   15.58618244 rev/day
Decay rate:     6.6046e-04 rev/day^2
Epoch rev:           10523
Checksum:              311

Satellite: METEOR-M
Catalog number: 35865
Epoch time:      11090.60211308
Element set:     237
Inclination:      098.7141 deg
RA of node:       146.7047 deg
Eccentricity:    0.0001607
Arg of perigee:   259.2493 deg
Mean anomaly:     100.8504 deg
Mean motion:   14.21835823 rev/day
Decay rate:       1.76e-06 rev/day^2
Epoch rev:            7956
Checksum:              284

Satellite: RS-38
Catalog number: 35869
Epoch time:      11090.61155990
Element set:     246
Inclination:      098.7120 deg
RA of node:       146.7546 deg
Eccentricity:    0.0003850
Arg of perigee:   255.1660 deg
Mean anomaly:     104.9067 deg
Mean motion:   14.22004209 rev/day
Decay rate:       1.77e-06 rev/day^2
Epoch rev:            7957
Checksum:              306

/EX


_______________________________________________
Via the Keps mailing list courtesy of AMSAT-NA
http://amsat.org/mailman/listinfo/keps

--- ViaMAIL!/WC v1.60d
 * Origin: Chowdanet (401-724-4410) telnet://chowdanet.com  (1:323/120)